Regional Weather Roundup
Issued by NWS

Home | Current Version | Previous Version | Graphics & Text | Print | Product List | Glossary Off
Versions: 1 2 3 4 5 6 7 8 9 10 11 12 13 14 15 16 17 18 19 20 21 22 23 24 25 26 27

000
ASUS45 KBOU 231310
RWRCO

WEATHER ROUNDUP FOR COLORADO
NATIONAL WEATHER SERVICE DENVER/BOULDER CO
700 AM MDT WED MAY 23 2018

NOTE: "FAIR" INDICATES FEW OR NO CLOUDS BELOW 12000 FEET WITH NO
SIGNIFICANT WEATHER AND/OR OBSTRUCTIONS TO VISIBILITY.

COZ001>005-013-030-031-231400-
...NORTHWEST COLORADO...

CITY           SKY/WX    TMP DP  RH WIND       PRES   REMARKS
CRAIG          FAIR      38  36  92 CALM      30.08R
HAYDEN         FAIR      44  40  85 E9        30.09S
MEEKER         FAIR      41  37  86 SE3       30.08R
RANGELY        FAIR      40  40  98 CALM      30.04S
RABBIT EARS PA FAIR      37  34  87 CALM      30.26R
STEAMBOAT SPGS FAIR      37  37 100 CALM      30.10S
WALDEN         FAIR      36  32  87 SE3       30.18R
$$

COZ006>008-011-231400-
...WEST CENTRAL VALLEYS...

CITY           SKY/WX    TMP DP  RH WIND       PRES   REMARKS
GRAND JUNCTION FAIR      49  43  80 SE5       30.00R
MONTROSE       FAIR      44  34  67 SE7       30.07R
EAGLE          FAIR      39  35  86 CALM      30.17R
RIFLE          FAIR      44  40  85 S3        30.06R
DELTA          FAIR      45  40  85 CALM      30.05R
NUCLA          FAIR      46  28  49 SE9       30.10R
$$

COZ017>023-064>068-231400-
...SOUTHWEST COLORADO...

CITY           SKY/WX    TMP DP  RH WIND       PRES   REMARKS
DURANGO        FAIR      39  27  62 NE3       30.14R
CORTEZ         FAIR      42  28  57 E3        30.09R
PAGOSA SPRINGS FAIR      38  30  73 N3        30.21R
TELLURIDE      CLOUDY    42  26  52 SE5       30.24R
WOLF CREEK PAS PTSUNNY   34  23  64 SW5       30.42R WCI  30
$$

COZ009-010-012-014-032>034-037-058>063-231400-
...CENTRAL COLORADO...

CITY           SKY/WX    TMP DP  RH WIND       PRES   REMARKS
ASPEN          FAIR      38  32  79 E6        30.14R
BUENA VISTA    FAIR      43  34  71 N3        30.19S
COPPER MTN     FAIR      41  23  48 S7        30.36R
BERTHOUD PASS  FAIR      34  23  64 S15       30.38S WCI  24
COTTONWOOD PAS FAIR      50  30  46 CALM      30.27R
GUNNISON       FAIR      37  32  82 CALM      30.21R
GRANBY         FOG       34  34  99 CALM      30.21R VSB<1/4
KREMMLING      FOG       43  41  93 SE3       30.19S VSB 1/2
LEADVILLE      FAIR      34  31  88 CALM      30.25S
MONARCH PASS   FAIR      36  25  64 MISG      30.47R
SALIDA         FAIR      45  35  69 NW5       30.25R
SUNLIGHT       PTSUNNY   37  25  60 S6        30.30R
WILKERSON PASS FAIR      37  32  81 SW5       30.36S
$$

COZ069>075-231400-
...SAN LUIS VALLEY/SANGRE DE CRISTO MOUNTAINS...

CITY           SKY/WX    TMP DP  RH WIND       PRES   REMARKS
ALAMOSA        FAIR      37  35  92 VRB5      30.18R
DEL NORTE      NOT AVBL
LA VETA PASS   FAIR      41  36  81 SW16      30.42R
SAGUACHE       NOT AVBL
$$

COZ035-036-038>040-231400-
...NORTHERN COLORADO FRONT RANGE...

CITY           SKY/WX    TMP DP  RH WIND       PRES   REMARKS
DENVER INTL AP PTSUNNY   54  45  71 SW10      30.04S
AURORA         MOSUNNY   51  47  88 S7        30.06R
FRONT RANGE AP FAIR      54  47  76 SW7       30.06R
ERIE MUNI ARPT FAIR      53  47  79 CALM      30.08F
BOULDER MUN AP FAIR      52  46  82 SW3       30.04S
CENTENNIAL     FAIR      51  47  86 S6        30.06S
BROOMFIELD     MOSUNNY   54  45  71 CALM      30.06S
FORT COLLINS   FAIR      53  49  86 NW5       30.04R
LONGMONT       FAIR      53  48  85 CALM      30.05F
$$

COZ041-046-047-076>085-087-088-231400-
...PIKES PEAK/PALMER DIVIDE AND SOUTHERN FOOTHILLS...

CITY           SKY/WX    TMP DP  RH WIND       PRES   REMARKS
COLO. SPRINGS  PTSUNNY   55  44  66 NW3       30.09R
A. F. ACADEMY  FAIR      51  44  78 NW5       30.09F
SCHRIEVER AFB  NOT AVBL
CHEYENNE MTN   FAIR      57  40  53 CALM      30.06S
ELLICOTT         N/A    N/A N/A N/A CALM      30.05F
FALCON         FAIR      54  41  62 N3        30.12S
FORT CARSON    FAIR      54  43  66 N7        30.06R
LIMON          FAIR      50  47  89 CALM      30.05R
MONUMENT HILL  FAIR      46  43  87 SW7       30.13S
CANON CITY     FAIR      54  41  62 W7        30.05R
WALSENBURG     FAIR      52  43  71 SE3       30.10R
TRINIDAD       FAIR      60  51  72 SW17      30.07R
$$

COZ042>045-048>051-090-091-231400-
...NORTHEAST COLORADO...

CITY           SKY/WX    TMP DP  RH WIND       PRES   REMARKS
GREELEY ARPT   FAIR      51  49  92 NW3       30.04R
AKRON          FAIR      55  52  89 W5        30.00R
BURLINGTON     FAIR      62  52  69 S17       30.01R
WRAY           FAIR      59  54  82 E5        30.00R
YUMA           FAIR      55  50  82 SW3       29.99R
STERLING       FAIR      57  54  88 N5        29.97S
HOLYOKE        FAIR      61  54  77 SW5       29.97R
FORT MORGAN    FAIR      55  51  86 NW8       30.02R
$$

COZ086-089-092>099-231400-
...SOUTHEAST COLORADO...

CITY           SKY/WX    TMP DP  RH WIND       PRES   REMARKS
PUEBLO         FAIR      56  45  66 S5        30.03R
LA JUNTA       FAIR      65  47  52 SW15G21   30.00R
LAMAR          FAIR      68  47  46 S12       29.98R
SPRINGFIELD      N/A     57  54  89 S16       30.06F
$$




USA.gov is the U.S. government's official web portal to all federal, state and local government web resources and services.